[[{"header":{"parameterUnit":"m.s-1","parameterCategory":1,"la1":30.2991,"la2":30.254,"lo1":-89.0895,"lo2":-89.0444,"dy":0.0017,"dx":0.0017,"nx":28,"ny":28,"refTime":"2024-02-09T09:00:00:Z","depth":0,"parameterNumber":2,"parameterNumberName":"U-component_of_WINDS"},"data":[0,0,0,0,0,0,0,0,0,0,0,0,0,0,0,0,0,0,0,0,0,0,0,0,0,0,0,0,0,0,0,0,0,0,0,0,0,0,0,0,0,0,0,0,0,0,0,0,0,0,0,0,0,0,0,0,0,0,-1.0362,-1.0362,0,-1.0383,-1.0383,-1.0384,-1.0409,-1.041,-1.041,-1.0411,-1.0431,-1.0431,-1.0431,0,0,0,0,0,0,0,0,0,0,0,0,0,-1.0342,-1.0342,-1.0362,-1.0362,-1.0363,-1.0383,-1.0383,-1.0384,-1.0409,-1.041,-1.041,-1.0411,-1.0431,-1.0431,-1.0431,0,0,0,0,0,0,0,0,0,0,0,0,0,-1.0355,-1.0342,-1.0362,-1.0378,-1.038,-1.0383,-1.0383,-1.0384,-1.0409,-1.041,-1.041,-1.0411,-1.0431,-1.0431,-1.0431,-1.0421,0,0,-1.0432,-1.0432,0,0,0,0,0,0,0,0,-1.0355,-1.0356,-1.0375,-1.0377,-1.0379,-1.0394,-1.0384,-1.0396,-1.0409,-1.0398,-1.0411,-1.0411,-1.0418,-1.0419,-1.0422,-1.0422,-1.0422,-1.0432,-1.0432,-1.0432,-1.0432,0,0,0,0,0,0,0,-1.0354,-1.0355,-1.037,-1.0376,-1.0378,-1.0383,-1.0386,-1.0386,-1.0404,-1.0399,-1.0401,-1.0403,-1.0419,-1.0422,-1.0423,-1.0423,-1.0432,-1.0432,-1.0432,-1.0432,-1.0413,-1.0412,0,0,0,0,0,0,-1.035,-1.0354,-1.037,-1.0371,-1.0368,-1.0383,-1.0386,-1.0389,-1.0404,-1.0407,-1.0402,-1.0404,-1.0421,-1.0422,-1.0423,-1.0411,-1.0432,-1.0432,-1.0433,-1.0413,-1.0412,-1.0412,0,0,0,0,0,0,-1.035,-1.0352,-1.0369,-1.0363,-1.0366,-1.0383,-1.0386,-1.0389,-1.0391,-1.0407,-1.041,-1.0402,-1.0422,-1.0423,-1.0421,-1.0412,-1.0433,-1.0433,-1.0414,-1.0413,-1.0412,-1.0385,0,0,0,0,0,0,-1.0349,-1.0351,-1.0348,-1.0363,-1.0366,-1.0366,-1.0385,-1.0389,-1.0392,-1.0394,-1.0407,-1.041,-1.0422,-1.042,-1.0421,-1.0412,-1.0433,-1.0415,-1.0414,-1.0412,-1.0387,-1.0384,-1.0381,0,0,0,0,0,-1.0348,-1.034,-1.0348,-1.0349,-1.0362,-1.0366,-1.0368,-1.0382,-1.0391,-1.0387,-1.0397,-1.041,-1.0413,-1.042,-1.0421,-1.0412,-1.0415,-1.0414,-1.0412,-1.0389,-1.0384,-1.0381,0,0,0,0,0,0,-1.0323,-1.0342,-1.0351,-1.0347,-1.0355,-1.037,-1.0366,-1.0377,-1.0382,-1.0384,-1.0401,-1.0404,-1.0399,-1.0406,-1.0413,-1.0402,-1.0416,-1.0414,-1.0397,-1.0393,-1.039,-1.0388,-1.0433,0,0,0,0,0,-1.0317,-1.0319,-1.0335,-1.033,-1.0334,-1.0349,-1.0351,-1.0361,-1.037,-1.0373,-1.0383,-1.039,-1.0392,-1.0393,-1.0397,-1.0389,-1.0391,-1.0383,-1.038,-1.0377,-1.0375,-1.0369,-1.0365,-1.0407,-1.0407,-1.0407,0,0,-1.0305,-1.0316,-1.0316,-1.0325,-1.0333,-1.0333,-1.0352,-1.0352,-1.0352,-1.0373,-1.0371,-1.0378,-1.0387,-1.0381,-1.0379,-1.0387,-1.0364,-1.0375,-1.0373,-1.0372,-1.0367,-1.0363,-1.036,-1.0406,-1.0406,-1.0406,0,0,-1.0282,-1.0291,-1.0287,-1.0294,-1.0304,-1.0314,-1.0313,-1.0326,-1.0332,-1.033,-1.0346,-1.0346,-1.035,-1.0355,-1.0359,-1.0336,-1.0347,-1.0337,-1.0319,-1.0314,-1.031,-1.0307,-1.0298,-1.0294,-1.0336,-1.0335,-1.0335,0,-1.0265,-1.0267,-1.0283,-1.0282,-1.0285,-1.0304,-1.0299,-1.0305,-1.0316,-1.0317,-1.0325,-1.033,-1.0338,-1.0332,-1.0327,-1.0329,-1.0327,-1.0335,-1.031,-1.0307,-1.0304,-1.0295,-1.0292,-1.0334,-1.0334,-1.0334,-1.0334,0,-1.0245,-1.0246,-1.0241,-1.0251,-1.0254,-1.025,-1.0265,-1.0266,-1.0276,-1.0285,-1.0282,-1.0291,-1.0296,-1.0296,-1.0306,-1.0291,-1.0295,-1.0307,-1.0321,-1.0299,-1.029,-1.0287,-1.0332,-1.0332,-1.0333,-1.0333,0,0,-1.0207,-1.0225,-1.0223,-1.0226,-1.0239,-1.0239,-1.0236,-1.0241,-1.024,-1.0247,-1.0244,-1.0247,-1.0257,-1.026,-1.0271,-1.0266,-1.0245,-1.0277,-1.0278,-1.0269,-1.0228,-1.0218,-1.0214,-1.0253,-1.0253,-1.0252,-1.0226,0,-1.0185,-1.0182,-1.0196,-1.0188,-1.0188,-1.0206,-1.0203,-1.0209,-1.0218,-1.0218,-1.0227,-1.0228,-1.0242,-1.0244,-1.024,-1.0249,-1.0237,-1.0251,-1.0249,-1.0249,-1.0244,-1.021,-1.02,-1.0175,-1.0223,-1.0223,-1.0223,0,-1.016,-1.0164,-1.0156,-1.0167,-1.0168,-1.0165,-1.017,-1.0171,-1.0178,-1.0184,-1.0187,-1.0199,-1.0196,-1.0211,-1.0206,-1.0215,-1.0215,-1.0219,-1.0218,-1.0217,-1.0233,-1.0206,-1.0168,-1.0163,-1.0218,-1.0218,-1.0219,0,-1.013,-1.0135,-1.013,-1.0133,-1.0146,-1.0144,-1.0149,-1.0157,-1.0158,-1.0162,-1.0163,-1.0166,-1.0168,-1.017,-1.0182,-1.0192,-1.0175,-1.0191,-1.0178,-1.0178,-1.0173,-1.0172,-1.0132,-1.0176,-1.0176,-1.0176,-1.0176,0,-1.0104,-1.0098,-1.0117,-1.0114,-1.0107,-1.0123,-1.0115,-1.0122,-1.0129,-1.0127,-1.0143,-1.0141,-1.0158,-1.0157,-1.0166,-1.0159,-1.0161,-1.0164,-1.0167,-1.0162,-1.0161,-1.0161,-1.0162,-1.0175,-1.0175,-1.0175,-1.0175,0,-1.0069,-1.0082,-1.0078,-1.009,-1.0093,-1.0088,-1.0098,-1.0095,-1.0104,-1.0101,-1.0101,-1.0115,-1.0115,-1.0127,-1.013,-1.0136,-1.0124,-1.0131,-1.0121,-1.0123,-1.0109,-1.0109,-1.0065,-1.0059,-1.0108,-1.0108,-1.0108,0,-1.0051,-1.0046,-1.0058,-1.0058,-1.0062,-1.0062,-1.0063,-1.0078,-1.0078,-1.0085,-1.0081,-1.0082,-1.0083,-1.0082,-1.0091,-1.0093,-1.0098,-1.0083,-1.0098,-1.0093,-1.0095,-1.0095,-1.0093,-1.0079,-1.0078,-1.0078,-1.0077,0,-1.0015,-1.0022,-1.0023,-1.0026,-1.0026,-1.0029,-1.0034,-1.0032,-1.0048,-1.0048,-1.0047,-1.0048,-1.005,-1.005,-1.0053,-1.0058,-1.0069,-1.0072,-1.0069,-1.0063,-1.0057,-1.0058,-1.011,-1.0073,-1.0073,-1.0074,-1.0074,-1.0074,-0.9987,-0.9983,-0.999,-0.9991,-0.9995,-0.9998,-0.9995,-1.0004,-1.0004,-1.0006,-1.0015,-1.0012,-1.0019,-1.0024,-1.0027,-1.0025,-1.0033,-1.0028,-1.0027,-1.0025,-1.0022,-1.0059,-1.0026,-1.0026,-1.0026,-1.0026,-1.0026,0,-0.9951,-0.9956,-0.9956,-0.9961,-0.9961,-0.9972,-0.9977,-0.9975,-0.9973,-0.9978,-0.9979,-0.9977,-0.9977,-0.9986,-0.9987,-0.9983,-0.9988,-0.9983,-0.9982,-0.9983,-1.0016,-1.0018,-0.9978,-0.9978,-0.9978,-0.9978,-0.9978,-0.9978,-0.9932,-0.9925,-0.9932,-0.9927,-0.9933,-0.993,-0.9931,-0.9934,-0.9937,-0.9935,-0.9935,-0.9941,-0.9947,-0.9948,-0.9948,-0.9951,-0.9949,-0.9941,-0.9945,-0.9976,-0.9981,-0.9985,-0.9986,-0.9941,-0.9941,-0.9912,-0.9912,-0.9911]},{"header":{"parameterUnit":"m.s-1","parameterCategory":1,"la1":30.2991,"la2":30.254,"lo1":-89.0895,"lo2":-89.0444,"dy":0.0017,"dx":0.0017,"nx":28,"ny":28,"refTime":"2024-02-09T09:00:00:Z","depth":0,"parameterNumber":3,"parameterNumberName":"V-component_of_WINDS"},"data":[0,0,0,0,0,0,0,0,0,0,0,0,0,0,0,0,0,0,0,0,0,0,0,0,0,0,0,0,0,0,0,0,0,0,0,0,0,0,0,0,0,0,0,0,0,0,0,0,0,0,0,0,0,0,0,0,0,0,3.654,3.6541,0,3.6671,3.6672,3.6674,3.6702,3.6702,3.6701,3.67,3.6832,3.6836,3.6841,0,0,0,0,0,0,0,0,0,0,0,0,0,3.6316,3.6319,3.654,3.6541,3.6543,3.667,3.6672,3.6674,3.6703,3.6702,3.67,3.6699,3.6831,3.6836,3.6841,0,0,0,0,0,0,0,0,0,0,0,0,0,3.6426,3.6321,3.6539,3.6573,3.6577,3.667,3.6672,3.6674,3.6703,3.6701,3.67,3.6699,3.6829,3.6835,3.6842,3.6911,0,0,3.6862,3.6865,0,0,0,0,0,0,0,0,3.642,3.6434,3.6566,3.6571,3.6576,3.6669,3.6642,3.6754,3.6703,3.6655,3.67,3.6698,3.6779,3.6789,3.6817,3.6917,3.6922,3.6863,3.6867,3.6869,3.6871,0,0,0,0,0,0,0,3.6412,3.6429,3.6591,3.6568,3.6574,3.6581,3.6596,3.6663,3.6723,3.6659,3.6662,3.6677,3.6781,3.6811,3.682,3.6924,3.6862,3.6868,3.6872,3.6875,3.7091,3.7092,0,0,0,0,0,0,3.6399,3.6422,3.6587,3.6595,3.6493,3.6587,3.6602,3.664,3.6723,3.6734,3.6678,3.6678,3.68,3.6813,3.6825,3.6914,3.6869,3.6876,3.6879,3.7089,3.7091,3.7093,0,0,0,0,0,0,3.6394,3.6413,3.6582,3.651,3.6532,3.6592,3.6634,3.6644,3.6673,3.6737,3.6747,3.6697,3.6799,3.6816,3.689,3.6918,3.6879,3.6885,3.7087,3.7089,3.7092,3.7089,0,0,0,0,0,0,3.6387,3.6411,3.6438,3.651,3.6535,3.6645,3.6636,3.6647,3.6685,3.6686,3.6757,3.6768,3.68,3.688,3.6897,3.6927,3.689,3.7084,3.7088,3.7091,3.7087,3.7091,3.7095,0,0,0,0,0,3.6379,3.643,3.6439,3.6458,3.657,3.6646,3.6661,3.6696,3.6687,3.6714,3.6756,3.6766,3.6912,3.6887,3.6906,3.6939,3.7083,3.7087,3.7091,3.7085,3.709,3.7095,0,0,0,0,0,0,3.6359,3.644,3.6451,3.6527,3.658,3.6651,3.6686,3.67,3.6756,3.6755,3.6797,3.6813,3.6885,3.6919,3.689,3.7011,3.6997,3.7005,3.6987,3.6992,3.6996,3.6987,3.6895,0,0,0,0,0,3.6363,3.6418,3.6487,3.6548,3.6574,3.6625,3.666,3.6683,3.6739,3.6761,3.6808,3.6862,3.692,3.6958,3.7015,3.7092,3.7109,3.7124,3.7128,3.7131,3.7138,3.7184,3.7192,3.7106,3.7106,3.7106,0,0,3.6373,3.6424,3.6456,3.6545,3.6588,3.6646,3.6644,3.6703,3.6747,3.677,3.6844,3.688,3.6943,3.702,3.7056,3.705,3.7165,3.7136,3.7138,3.7143,3.7189,3.7197,3.7204,3.7109,3.7108,3.7108,0,0,3.642,3.6464,3.6521,3.6565,3.6631,3.6666,3.668,3.675,3.6775,3.685,3.687,3.6921,3.702,3.7066,3.7101,3.7168,3.7181,3.7186,3.7207,3.7252,3.7259,3.7265,3.7291,3.73,3.7192,3.7192,3.7192,0,3.6423,3.651,3.6548,3.6608,3.6647,3.6673,3.6732,3.6772,3.6853,3.688,3.6873,3.7001,3.7044,3.7133,3.715,3.7177,3.7196,3.7178,3.7255,3.7261,3.7268,3.7293,3.7303,3.7192,3.7192,3.7192,3.7192,0,3.6513,3.6573,3.6611,3.6691,3.6734,3.6793,3.684,3.688,3.69,3.6935,3.7012,3.7066,3.7136,3.7159,3.7178,3.7251,3.7246,3.7246,3.7233,3.7276,3.7301,3.731,3.7193,3.7193,3.7193,3.7192,0,0,3.655,3.6652,3.6665,3.6703,3.6779,3.6827,3.6887,3.6957,3.6991,3.7046,3.71,3.7184,3.7186,3.7227,3.7251,3.729,3.7343,3.7286,3.7288,3.7297,3.743,3.7431,3.7442,3.7351,3.7353,3.7355,3.7426,0,3.6608,3.6719,3.6755,3.6847,3.6904,3.693,3.6984,3.7037,3.7072,3.7126,3.7164,3.7225,3.7221,3.7246,3.7286,3.7328,3.7371,3.7323,3.7403,3.7405,3.7388,3.7455,3.7455,3.752,3.7436,3.7437,3.7439,0,3.6691,3.675,3.6848,3.692,3.6945,3.6992,3.7061,3.7111,3.7172,3.7195,3.7242,3.7265,3.733,3.7313,3.7405,3.7372,3.7406,3.7432,3.7436,3.7446,3.7425,3.7469,3.7541,3.7551,3.7454,3.7453,3.7451,0,3.6712,3.6815,3.6888,3.6919,3.7004,3.7037,3.7074,3.7134,3.7174,3.7233,3.726,3.7326,3.7362,3.7413,3.7453,3.7436,3.7543,3.7528,3.7565,3.7564,3.7587,3.7585,3.7668,3.7606,3.7606,3.7606,3.7605,0,3.6774,3.6834,3.6899,3.6944,3.7012,3.7054,3.712,3.7158,3.7212,3.7265,3.7291,3.734,3.7389,3.7446,3.7477,3.755,3.7566,3.7587,3.7595,3.7586,3.7584,3.761,3.7608,3.7608,3.7608,3.7607,3.7607,0,3.6809,3.6855,3.6937,3.7011,3.7031,3.7078,3.7142,3.7187,3.7224,3.7292,3.731,3.7368,3.7436,3.7481,3.7566,3.7588,3.7668,3.7674,3.7648,3.7652,3.7688,3.7685,3.7792,3.781,3.7734,3.7734,3.7735,0,3.6847,3.6894,3.6974,3.7012,3.705,3.711,3.7152,3.7196,3.7238,3.7313,3.735,3.742,3.7478,3.7585,3.7635,3.7702,3.7711,3.7744,3.7721,3.7712,3.7715,3.7712,3.7718,3.7748,3.7749,3.7749,3.775,0,3.691,3.6931,3.6991,3.706,3.711,3.7165,3.7221,3.7251,3.7304,3.7351,3.7421,3.7467,3.7556,3.7626,3.7698,3.7736,3.7753,3.7756,3.7769,3.7761,3.7745,3.7757,3.7661,3.7754,3.7753,3.7753,3.7753,3.7753,3.695,3.6994,3.7058,3.7124,3.7171,3.7223,3.7271,3.7314,3.7374,3.7451,3.7472,3.7547,3.7609,3.7707,3.7747,3.7806,3.7803,3.782,3.7825,3.7829,3.7831,3.7734,3.7819,3.7819,3.7819,3.7819,3.7819,0,3.7017,3.706,3.712,3.7199,3.7252,3.7263,3.7326,3.7369,3.7435,3.7491,3.7549,3.7631,3.77,3.7756,3.7826,3.7863,3.7873,3.788,3.7879,3.7888,3.7829,3.7812,3.7872,3.7872,3.7872,3.7872,3.7872,3.7872,3.7058,3.7134,3.7163,3.7263,3.7305,3.7379,3.7414,3.7463,3.7509,3.76,3.7658,3.7694,3.7751,3.7827,3.789,3.7905,3.7931,3.7938,3.7954,3.7898,3.7892,3.7886,3.7871,3.7942,3.7942,3.8009,3.801,3.801]}]]